Dewpoint
57 59 59 60 58 58 59 58 56 55 54 54 54 54 53 52 53 52 52 52 51 51 53 55 55 55 53 47 44 49 50 46 46 52 50 47 40 42 45 43 44 42 40 39 39 38 39
58 57 59 59 59 58 58 57 58 56 55 54 54 54 54 53 54 53 53 52 53 52 52 54 55 56 49 40 43 45 46 45 44 46 49 49 41 40 40 41 42 43 41 40 39 39 39
57 56 58 59 59 59 58 57 57 59 56 54 54 54 55 54 54 54 53 52 53 52 52 53 54 51 45 40 40 42 43 41 42 41 44 47 45 42 42 43 40 42 40 40 39 38 37
57 56 58 59 59 59 59 59 58 58 56 55 54 54 55 55 55 54 54 53 53 53 53 52 52 49 44 43 43 42 41 40 41 41 41 44 46 43 44 48 45 38 42 40 39 39 38
55 57 58 58 58 58 59 59 58 57 57 56 55 54 54 56 56 55 54 54 54 55 53 52 48 47 40 46 42 41 41 38 38 41 41 41 45 44 45 46 44 42 38 38 38 37 38
55 57 58 58 58 57 58 59 59 58 57 57 56 56 55 56 56 56 55 53 53 54 52 49 45 42 40 38 40 41 41 40 37 39 39 40 44 42 43 42 37 38 38 35 37 35 37
56 57 58 58 57 58 58 58 58 58 57 58 57 55 56 55 56 55 52 52 47 45 48 42 40 37 37 38 41 42 40 40 38 37 37 39 39 37 38 39 41 38 39 35 36 35 36
57 57 57 57 57 57 58 58 58 58 57 57 56 55 55 55 55 55 52 47 45 45 42 44 41 40 39 41 38 40 40 37 35 34 35 37 37 36 35 39 40 40 36 35 34 35 35
58 57 57 57 57 57 58 58 58 57 57 56 56 55 55 54 53 53 50 46 50 49 41 40 43 40 38 40 37 37 39 37 32 32 32 34 37 36 33 37 41 40 39 34 34 35 34
58 57 57 57 57 57 57 57 58 58 57 56 55 55 54 54 49 47 47 51 51 50 33 36 40 41 41 43 39 39 40 37 33 31 31 34 36 38 33 36 42 39 41 35 34 35 32
56 56 55 56 57 57 56 57 57 58 57 57 55 55 55 53 48 48 49 51 50 47 26 35 40 42 41 40 34 33 37 38 33 32 37 33 36 38 34 39 42 40 40 36 37 36 38
53 53 56 55 56 57 56 56 57 57 57 57 56 55 55 53 50 49 50 49 47 33 25 35 38 38 37 40 35 34 34 37 35 32 39 32 39 39 37 41 46 44 39 40 38 35 31
50 51 53 56 54 56 56 56 57 57 57 57 57 56 54 46 44 51 50 45 32 29 35 35 35 38 37 37 35 34 35 34 35 32 33 35 36 40 42 41 45 43 40 36 32 32 27
50 51 50 52 55 55 55 56 57 57 57 56 57 56 53 46 52 51 48 38 28 30 32 38 37 37 34 35 32 31 32 31 34 34 34 33 31 37 38 43 41 41 40 30 25 25 25
48 51 49 50 50 55 55 56 56 57 56 56 56 54 51 50 52 50 42 31 32 34 37 36 38 34 35 35 25 26 30 31 30 34 34 32 34 39 42 44 41 40 38 33 29 27 25
48 51 51 50 53 55 55 56 56 56 56 56 49 48 47 49 52 48 38 34 37 38 38 37 28 29 28 30 26 28 31 32 29 31 37 37 33 38 44 44 44 41 37 32 29 24 23
48 50 50 50 52 55 55 56 56 56 57 55 48 44 46 50 51 43 33 35 38 40 39 36 27 24 23 24 27 28 28 26 28 29 37 40 35 35 40 40 39 42 37 36 31 28 23
48 49 51 50 50 52 55 56 56 56 56 52 47 41 51 51 40 39 35 37 40 39 41 37 26 25 22 23 27 29 26 25 26 31 37 40 38 33 34 32 39 41 38 35 29 27 26
47 48 50 49 50 51 56 56 56 56 53 48 44 44 51 48 36 36 37 38 39 39 40 34 28 26 23 24 25 30 30 29 31 28 39 37 35 35 36 33 38 38 36 37 34 31 27
46 48 50 50 50 51 55 55 55 56 53 48 42 42 44 46 43 41 37 38 38 41 39 33 30 27 26 26 26 29 31 32 35 30 43 40 33 30 27 29 36 36 37 35 33 29 27
45 47 49 50 50 52 55 55 55 55 54 49 42 42 41 38 39 40 41 40 38 39 41 35 37 31 29 24 26 30 31 34 34 37 37 38 31 29 27 29 32 33 35 35 34 33 29
44 46 47 49 49 49 53 54 54 55 55 48 40 36 43 43 40 40 41 39 39 39 39 38 41 35 30 27 25 25 31 33 35 38 34 37 33 30 29 30 29 29 31 33 33 33 32
44 45 47 47 49 50 51 54 54 54 53 47 46 43 39 39 39 38 39 40 40 41 43 40 42 38 34 31 31 36 34 37 37 36 38 36 36 30 27 28 30 28 29 30 31 31 30
43 45 46 47 48 49 49 54 54 54 52 47 44 42 38 31 31 33 37 42 42 41 40 42 45 42 39 38 38 39 39 36 38 38 37 36 35 32 30 26 26 27 29 30 29 31 32
43 45 45 48 47 48 49 53 54 54 53 48 46 44 40 33 31 32 34 42 39 42 42 39 41 39 38 38 37 38 38 38 33 32 38 39 37 34 31 31 31 31 26 28 29 29 30
42 44 45 47 46 47 49 52 53 53 54 50 47 46 42 37 31 32 37 42 39 38 36 36 34 35 35 37 38 36 35 37 34 34 37 39 40 38 35 28 26 25 29 28 30 26 29
42 44 44 46 46 47 48 49 53 53 53 50 48 47 45 38 35 33 32 40 44 39 35 33 34 36 43 39 36 36 34 37 34 35 34 37 39 36 36 34 30 29 30 30 23 29 30
40 43 44 46 46 47 48 48 53 52 53 50 48 47 44 41 40 40 37 36 40 41 35 35 38 39 42 39 37 35 32 32 33 36 35 34 34 35 37 34 31 32 31 28 34 35 32
40 43 44 45 46 46 48 49 53 52 53 51 48 47 47 46 44 45 44 43 42 40 39 35 39 39 44 41 37 35 33 29 30 29 31 34 32 29 31 32 34 33 34 35 36 35 35
Lifted_Index
4 4 3 3 4 4 4 5 6 7 8 9 9 9 9 10 10 10 9 9 9 8 8 8 7 7 8 8 8 8 8 8 7 5 4 4 4 4 2 1 0 0 1 1 2 2 2
4 4 4 3 4 4 4 5 5 6 7 8 9 9 9 9 10 9 9 9 9 8 8 8 7 8 8 9 8 8 8 8 7 5 4 4 4 3 2 1 0 0 0 1 1 2 2
4 4 4 4 3 4 4 5 5 5 6 7 8 8 9 9 9 9 9 9 8 8 8 8 8 8 8 9 9 8 8 8 7 6 5 4 3 3 2 1 1 0 -0 0 1 2 2
4 4 4 4 3 4 4 5 5 5 6 7 8 8 8 8 8 8 8 8 8 8 8 8 8 8 8 8 8 8 7 7 7 6 5 4 3 3 2 1 0 0 -0 0 1 1 1
4 4 4 3 3 4 4 4 5 5 5 6 7 7 7 7 8 8 8 7 7 7 8 8 8 8 8 8 7 7 7 6 6 5 5 4 3 3 2 1 0 -0 0 0 1 1 1
4 4 3 3 3 4 4 4 4 5 5 5 6 7 7 7 7 7 8 7 7 7 7 8 8 8 8 7 6 6 5 5 5 4 4 3 2 2 2 1 0 0 0 0 0 1 1
4 4 3 3 3 4 4 4 4 4 5 5 6 6 7 7 7 7 8 8 7 7 7 7 8 7 7 6 5 4 4 4 4 4 3 2 1 1 1 1 0 -0 -0 -0 -0 0 1
4 4 3 3 3 3 3 4 4 4 5 5 6 6 7 7 7 7 8 7 7 7 7 7 7 7 6 5 4 3 3 3 3 3 2 1 0 0 1 0 -0 -0 -1 -1 -0 0 1
3 3 3 3 3 3 3 3 4 4 5 6 6 7 7 7 8 8 8 7 7 6 6 7 7 6 5 5 4 3 2 2 2 1 0 -0 -1 -1 -0 -0 -1 -1 -1 -1 -0 0 1
3 3 3 3 2 2 2 3 4 4 4 5 6 7 7 8 8 8 8 7 6 5 5 6 6 6 5 4 3 3 2 1 1 1 0 -0 -1 -1 -0 0 -0 -1 -1 -1 -0 -0 0
3 2 2 2 2 2 2 3 3 4 4 5 6 6 7 8 8 8 8 7 6 5 4 5 5 5 5 4 3 2 2 1 0 0 0 0 -0 -0 0 0 -0 -1 -1 -1 -0 -0 0
4 3 3 2 2 2 2 2 3 3 4 4 5 5 6 7 8 8 8 7 6 4 4 4 5 4 4 3 3 2 1 1 0 0 1 1 1 0 0 0 -0 -0 -1 -0 -0 0 0
5 5 4 2 2 2 2 2 3 3 3 4 4 5 6 7 8 8 8 7 5 4 4 4 4 3 3 2 2 1 1 0 0 1 1 1 1 1 0 0 0 -0 -0 -0 -0 0 1
5 6 5 3 2 2 2 2 2 3 3 4 4 5 6 7 8 8 8 6 4 3 4 4 3 2 2 2 1 1 0 0 1 1 1 1 1 1 1 0 1 0 0 0 0 0 1
6 6 6 4 2 2 2 2 2 3 3 4 4 5 5 7 8 8 7 5 4 4 4 3 3 2 1 1 1 1 1 1 1 2 2 2 2 1 1 1 1 0 0 0 0 0 0
6 6 5 5 3 2 2 2 2 3 3 4 4 5 6 7 8 8 7 5 4 4 4 3 3 2 1 1 1 1 1 2 2 2 2 2 2 1 1 1 1 1 0 0 0 0 -0
6 5 5 5 4 2 2 2 2 3 3 4 4 5 6 7 7 7 6 4 4 4 4 3 3 3 2 1 1 2 2 2 3 3 2 2 2 1 1 1 1 1 0 0 1 0 0
6 6 6 5 4 2 2 2 2 3 3 4 4 5 6 6 6 5 4 4 4 4 4 4 4 3 3 2 2 2 2 3 3 3 3 2 2 1 1 1 1 1 0 0 0 1 1
6 6 6 6 5 3 2 2 2 3 4 4 4 5 5 6 5 5 4 4 4 4 4 4 4 4 4 3 3 3 3 3 3 3 2 2 1 1 1 1 1 1 1 0 1 1 1
7 6 6 6 5 3 2 2 2 3 4 4 5 5 5 5 5 4 4 3 3 3 4 4 4 4 4 3 3 3 3 3 3 3 2 2 1 1 1 1 1 1 1 1 1 1 1
8 7 6 6 5 4 2 2 2 3 4 4 4 5 5 5 4 4 4 3 3 3 4 4 3 4 4 4 3 3 3 3 3 3 3 2 2 1 1 1 1 1 1 1 1 1 1
8 8 7 6 6 4 2 2 2 3 4 4 4 5 5 4 4 4 4 3 3 3 3 3 3 3 3 3 3 3 3 2 2 3 3 3 2 2 2 2 1 1 1 1 1 1 2
9 8 8 7 6 5 3 2 2 3 4 4 5 5 5 4 4 4 4 3 3 3 3 3 2 2 2 2 2 2 2 1 1 2 2 2 2 2 2 2 2 2 2 2 2 2 2
9 9 8 8 7 5 3 2 2 3 4 4 5 5 5 5 5 4 4 3 3 3 3 3 2 2 1 2 2 2 1 1 1 1 2 2 2 2 1 1 1 2 2 2 2 2 3
9 9 8 8 8 6 4 2 2 3 4 5 5 5 5 5 5 5 4 3 3 3 3 3 2 2 2 1 1 1 1 1 1 1 1 2 2 1 1 1 1 1 2 2 2 2 3
10 10 9 8 8 7 5 3 3 3 4 5 5 5 5 5 5 5 4 3 3 3 3 3 2 2 2 1 1 1 1 1 1 1 1 2 1 1 1 1 1 1 2 2 2 2 2
10 10 9 9 8 8 5 4 3 4 4 5 5 5 5 5 5 5 5 4 3 3 2 2 2 2 2 1 1 1 1 1 1 1 1 1 1 1 1 1 1 1 2 2 2 2 2
11 10 9 9 9 8 6 4 3 4 4 5 5 5 5 5 5 5 5 4 3 3 3 3 2 2 2 1 1 1 1 1 1 1 1 1 1 1 1 1 1 1 2 2 2 3 3
11 10 9 9 9 8 6 4 4 4 4 5 5 5 5 5 5 5 6 5 3 3 3 3 2 2 2 1 1 1 1 1 1 1 1 1 1 1 1 1 1 1 2 2 3 3 3